• In Hungary
  • List of Countries
  • For 7 days
  • Water Temperature
  • Satellite Maps
  • Weather Map
  • News
  • Weather Widgets
  • user-avatar
    Login

    Hourly Weather Overijse

    Today, 17 October, Tuesday

    Time Temperature Precipitation Wind Pressure Humidity
    00:00 +16°C° 0 mm 2 mps 757 mmHg 89%
    01:00 +15°C° 0 mm 2 mps 757 mmHg 88%
    02:00 +15°C° 0 mm 2 mps 757 mmHg 88%
    03:00 +14°C° 0 mm 2 mps 757 mmHg 87%
    04:00 +14°C° 0 mm 2 mps 758 mmHg 87%
    05:00 +14°C° 0 mm 2 mps 758 mmHg 87%
    06:00 +13°C° 0 mm 2 mps 758 mmHg 87%
    07:00 +14°C° 0 mm 2 mps 758 mmHg 82%
    08:00 +16°C° 0 mm 2 mps 758 mmHg 77%
    09:00 +17°C° 0 mm 2 mps 758 mmHg 71%
    10:00 +18°C° 0 mm 2 mps 757 mmHg 68%
    11:00 +19°C° 0 mm 2 mps 757 mmHg 64%
    12:00 +20°C° 0 mm 2 mps 757 mmHg 60%
    13:00 +21°C° 0 mm 1 mps 757 mmHg 61%
    14:00 +22°C° 0 mm 1 mps 756 mmHg 62%
    15:00 +20°C° 0 mm 0 mps 755 mmHg 63%
    16:00 +20°C° 0 mm 1 mps 755 mmHg 68%
    17:00 +19°C° 0 mm 1 mps 755 mmHg 73%
    18:00 +16°C° 0 mm 2 mps 755 mmHg 78%
    19:00 +16°C° 0 mm 2 mps 755 mmHg 80%
    20:00 +15°C° 0 mm 2 mps 754 mmHg 81%
    21:00 +15°C° 0 mm 2 mps 754 mmHg 83%
    22:00 +15°C° 0 mm 2 mps 754 mmHg 85%
    23:00 +15°C° 0 mm 2 mps 753 mmHg 87%

    Tomorrow, 18 October, Wednesday

    Time Temperature Precipitation Wind Pressure Humidity
    00:00 +14°C° 0 mm 2 mps 753 mmHg 89%
    01:00 +14°C° 0 mm 2 mps 753 mmHg 89%
    02:00 +14°C° 0 mm 2 mps 752 mmHg 89%
    03:00 +13°C° 0 mm 2 mps 752 mmHg 89%
    04:00 +13°C° 0 mm 2 mps 752 mmHg 88%
    05:00 +13°C° 0 mm 2 mps 752 mmHg 86%
    06:00 +12°C° 0 mm 2 mps 751 mmHg 85%
    07:00 +13°C° 0 mm 3 mps 751 mmHg 80%
    08:00 +14°C° 0 mm 3 mps 751 mmHg 74%
    09:00 +16°C° 0 mm 3 mps 751 mmHg 69%
    10:00 +18°C° 0 mm 4 mps 751 mmHg 67%
    11:00 +19°C° 0 mm 4 mps 751 mmHg 66%
    12:00 +20°C° 0 mm 4 mps 751 mmHg 64%
    13:00 +20°C° 0 mm 3 mps 751 mmHg 66%
    14:00 +20°C° 0 mm 3 mps 751 mmHg 68%
    15:00 +20°C° 0 mm 3 mps 750 mmHg 70%
    16:00 +19°C° 0 mm 2 mps 750 mmHg 75%
    17:00 +18°C° 0 mm 2 mps 750 mmHg 81%
    18:00 +16°C° 0 mm 2 mps 750 mmHg 86%
    19:00 +16°C° 0 mm 2 mps 751 mmHg 86%
    20:00 +15°C° 0 mm 2 mps 751 mmHg 86%
    21:00 +15°C° 0 mm 2 mps 751 mmHg 86%
    22:00 +14°C° 0 mm 2 mps 750 mmHg 85%
    23:00 +14°C° 0 mm 2 mps 750 mmHg 83%

    Day after tomorrow, 19 October, Thursday

    Time Temperature Precipitation Wind Pressure Humidity
    00:00 +14°C° 0 mm 2 mps 750 mmHg 82%
    01:00 +14°C° 0 mm 2 mps 750 mmHg 83%
    02:00 +13°C° 0 mm 2 mps 750 mmHg 83%
    03:00 +13°C° 0 mm 2 mps 750 mmHg 83%
    04:00 +13°C° 0 mm 2 mps 749 mmHg 84%
    05:00 +12°C° 0 mm 3 mps 749 mmHg 85%
    06:00 +12°C° 0 mm 3 mps 749 mmHg 86%
    07:00 +13°C° 0 mm 4 mps 749 mmHg 81%
    08:00 +15°C° 0 mm 4 mps 749 mmHg 76%
    09:00 +16°C° 0 mm 5 mps 749 mmHg 71%
    10:00 +17°C° 0.1 mm 5 mps 749 mmHg 71%
    11:00 +17°C° 0.1 mm 5 mps 748 mmHg 71%
    12:00 +19°C° 0.1 mm 5 mps 748 mmHg 71%
    13:00 +19°C° 0.2 mm 5 mps 748 mmHg 72%
    14:00 +19°C° 0.2 mm 4 mps 748 mmHg 73%
    15:00 +19°C° 0.2 mm 4 mps 747 mmHg 75%
    16:00 +19°C° 0.3 mm 4 mps 747 mmHg 78%
    17:00 +18°C° 0.3 mm 4 mps 747 mmHg 81%
    18:00 +16°C° 0.3 mm 5 mps 748 mmHg 85%
    19:00 +15°C° 0 mm 4 mps 748 mmHg 86%
    20:00 +15°C° 0 mm 4 mps 748 mmHg 88%
    21:00 +15°C° 0 mm 4 mps 748 mmHg 90%
    22:00 +14°C° 0 mm 5 mps 748 mmHg 89%
    23:00 +14°C° 0 mm 5 mps 748 mmHg 89%

    20 October, Friday

    Time Temperature Precipitation Wind Pressure Humidity
    00:00 +14°C° 0 mm 5 mps 748 mmHg 88%
    01:00 +14°C° 0 mm 5 mps 748 mmHg 87%
    02:00 +14°C° 0 mm 6 mps 747 mmHg 87%
    03:00 +14°C° 0 mm 6 mps 747 mmHg 86%
    04:00 +14°C° 0.3 mm 7 mps 747 mmHg 85%
    05:00 +14°C° 0.3 mm 7 mps 747 mmHg 85%
    06:00 +13°C° 0.3 mm 8 mps 746 mmHg 85%
    07:00 +15°C° 0.1 mm 8 mps 747 mmHg 83%
    08:00 +15°C° 0.1 mm 8 mps 748 mmHg 82%
    09:00 +15°C° 0.1 mm 8 mps 748 mmHg 81%
    10:00 +16°C° 0.1 mm 8 mps 749 mmHg 76%
    11:00 +16°C° 0.1 mm 7 mps 749 mmHg 72%
    12:00 +17°C° 0.1 mm 7 mps 750 mmHg 68%
    13:00 +17°C° 0 mm 6 mps 750 mmHg 68%
    14:00 +17°C° 0 mm 5 mps 750 mmHg 68%
    15:00 +17°C° 0 mm 4 mps 750 mmHg 68%
    16:00 +15°C° 0 mm 4 mps 750 mmHg 72%
    17:00 +14°C° 0 mm 3 mps 750 mmHg 76%
    18:00 +13°C° 0 mm 3 mps 750 mmHg 81%
    19:00 +14°C° 0 mm 4 mps 750 mmHg 80%
    20:00 +15°C° 0 mm 4 mps 750 mmHg 79%
    21:00 +15°C° 0 mm 5 mps 750 mmHg 78%
    22:00 +15°C° 0.3 mm 5 mps 749 mmHg 80%
    23:00 +16°C° 0.3 mm 6 mps 749 mmHg 82%

    21 October, Saturday

    Time Temperature Precipitation Wind Pressure Humidity
    00:00 +16°C° 0.3 mm 6 mps 749 mmHg 83%
    01:00 +16°C° 0.5 mm 6 mps 749 mmHg 85%
    02:00 +15°C° 0.5 mm 6 mps 748 mmHg 86%
    03:00 +15°C° 0.5 mm 6 mps 748 mmHg 88%
    04:00 +15°C° 0.2 mm 6 mps 748 mmHg 88%
    05:00 +15°C° 0.2 mm 6 mps 749 mmHg 89%
    06:00 +16°C° 0.2 mm 6 mps 749 mmHg 89%
    07:00 +16°C° 0.3 mm 6 mps 749 mmHg 85%
    08:00 +16°C° 0.3 mm 6 mps 749 mmHg 80%
    09:00 +16°C° 0.3 mm 6 mps 749 mmHg 75%
    10:00 +16°C° 0 mm 7 mps 749 mmHg 69%
    11:00 +16°C° 0 mm 7 mps 750 mmHg 63%
    12:00 +16°C° 0 mm 8 mps 750 mmHg 58%
    13:00 +16°C° 0 mm 7 mps 749 mmHg 59%
    14:00 +15°C° 0 mm 7 mps 749 mmHg 60%
    15:00 +15°C° 0 mm 6 mps 749 mmHg 62%
    16:00 +14°C° 0 mm 6 mps 749 mmHg 63%
    17:00 +14°C° 0 mm 7 mps 748 mmHg 65%
    18:00 +12°C° 0 mm 7 mps 748 mmHg 67%
    19:00 +12°C° 0 mm 7 mps 748 mmHg 67%
    20:00 +11°C° 0 mm 7 mps 748 mmHg 67%
    21:00 +11°C° 0 mm 8 mps 748 mmHg 67%
    22:00 +10°C° 0 mm 8 mps 748 mmHg 68%
    23:00 +10°C° 0 mm 8 mps 748 mmHg 68%

    22 October, Sunday

    Time Temperature Precipitation Wind Pressure Humidity
    00:00 +10°C° 0 mm 8 mps 748 mmHg 69%
    01:00 +9°C° 0 mm 8 mps 748 mmHg 70%
    02:00 +9°C° 0 mm 8 mps 748 mmHg 71%
    03:00 +9°C° 0 mm 8 mps 749 mmHg 72%
    04:00 +9°C° 0 mm 8 mps 749 mmHg 72%
    05:00 +9°C° 0 mm 8 mps 749 mmHg 72%
    06:00 +9°C° 0 mm 8 mps 749 mmHg 72%
    07:00 +9°C° 0 mm 8 mps 749 mmHg 72%
    08:00 +8°C° 0 mm 9 mps 750 mmHg 71%
    09:00 +10°C° 0 mm 9 mps 750 mmHg 71%
    10:00 +10°C° 0.2 mm 9 mps 750 mmHg 70%
    11:00 +10°C° 0.2 mm 9 mps 750 mmHg 70%
    12:00 +10°C° 0.2 mm 9 mps 751 mmHg 70%
    13:00 +11°C° 0.2 mm 8 mps 751 mmHg 70%
    14:00 +11°C° 0.2 mm 7 mps 751 mmHg 70%
    15:00 +11°C° 0.2 mm 7 mps 751 mmHg 69%
    16:00 +10°C° 0.2 mm 6 mps 752 mmHg 71%
    17:00 +9°C° 0.2 mm 6 mps 752 mmHg 74%
    18:00 +9°C° 0.2 mm 5 mps 753 mmHg 76%
    19:00 +9°C° 0.1 mm 5 mps 753 mmHg 76%
    20:00 +8°C° 0.1 mm 5 mps 754 mmHg 77%
    21:00 +8°C° 0.1 mm 5 mps 754 mmHg 78%
    22:00 +8°C° 0 mm 5 mps 754 mmHg 79%
    23:00 +7°C° 0 mm 5 mps 754 mmHg 79%
    Show more